Location: Smyrna_Hopewell
(35.6500°N, 81.0330°W)
Time: 02:26:28
(UTC-04:00)

Cosmos 2221 - Visible Passes

Search period start: 05 August 2015 00:00
Search period end: 15 August 2015 00:00
Orbit: 594 x 620 km, 82.5° (Epoch: 04 August)

Date Brightness Start Highest point End Pass type
(mag) Time Alt. Az. Time Alt. Az. Time Alt. Az.
05 Aug 3.5 04:00:23 38° NNW 04:00:23 38° NNW 04:03:15 10° N visible
06 Aug 5.3 02:37:16 13° ENE 02:37:16 13° ENE 02:38:08 10° NE visible
06 Aug 4.1 04:14:12 25° NW 04:14:12 25° NW 04:16:33 10° NNW visible
07 Aug 5.0 02:51:03 19° NE 02:51:03 19° NE 02:52:34 10° NNE visible
07 Aug 4.6 04:27:58 15° NW 04:27:58 15° NW 04:29:26 10° NNW visible
08 Aug 4.8 03:04:49 23° NNE 03:04:49 23° NNE 03:06:32 10° NNE visible
09 Aug 4.6 03:18:33 23° N 03:18:33 23° N 03:20:14 10° N visible
10 Aug 4.8 03:32:17 19° NNW 03:32:17 19° NNW 03:33:41 10° N visible
11 Aug 5.0 03:46:00 14° NNW 03:46:00 14° NNW 03:46:49 10° NNW visible
12 Aug 5.5 02:22:48 13° NNE 02:22:48 13° NNE 02:23:16 10° NNE visible
13 Aug 5.4 02:36:29 14° NNE 02:36:29 14° NNE 02:37:06 10° NNE visible
14 Aug 5.4 02:50:09 13° N 02:50:09 13° N 02:50:41 10° N visible
